Find Starlink 32090

NORAD ID: 59691 Int'l Des: 2024-086 Owner: SPXS Country: US Constellation: starlink operational
LEOCIRCULAR

当前视图

正在加载3D地球...

About Starlink 32090

Starlink 32090 (NORAD 59691) is a starlink constellation satellite (v2 mini) launched May 8, 2024 by SPXS of US. It operates in LEO, CIRCULAR orbit with a mass of 730.00 kg.

关于 Starlink 32090

正在加载描述...

即将过境

Passes for default location (London). Set your location on the main map for personalized predictions.

高度历史

Loading altitude history...

两行轨道根数

1 59691U 24086K 26171.12639889 .00000367 00000-0 22862-4 0 9993
2 59691 42.9992 205.2606 0001100 278.6570 81.4157 15.27591885119733
Epoch: Jun 20, 2026 • Age: 12 hours

当前状态

高度 483.0 km
速度 7.63 km/s
星下点 21.20°N, 130.69°W
发射日期 May 8, 2024
运行时间 2.1 years
类型 internet

技术详情

分类 Payload
质量 730.00 kg
干质量 700.00 kg
总质量 730.00 kg
长度 0.30 m
直径 4.10 m
跨度 29.00 m
形状 Box + pan
制造商 SPXS
平台类型 Starlink V2M
阶段状态 In Orbit
所有者/国家 SPXS/US

Most Searched